{"data":{"norad_id":63654,"epoch":"2026-09-20T12:48:25.459200Z","epoch_age_seconds":150146,"freshness":"FRESH","line1":"1 63654U 25083W   26263.53362800  .00018202  00000+0  66902-3 0  9996","line2":"2 63654  43.0029 345.0089 0001416 290.9819  69.0881 15.27596159 79865","mean_motion":15.27596159,"eccentricity":0.0001416,"inclination_deg":43.0029,"raan_deg":345.0089,"arg_perigee_deg":290.9819,"mean_anomaly_deg":69.0881,"bstar":0.00066902,"rev_number":7986,"period_min":94.265751554564,"perigee_km":482.02917350719,"apogee_km":483.97224770683,"semimajor_km":6861.137710607,"source":"CELESTRAK","updated_at":"2026-09-21T09:00:35.055066Z"}}